User: anonymous   Login
Location: Unspecified
(0.0000°N, 0.0000°E)
Time: 23:15:34
(UTC+00:00)
Language:

DNEPR OBJECT AF - Orbit

View from above orbital plane
View from above orbital plane
View from above satellite
View from above satellite

Ground track
Ground track

The orbit data is extracted from the following two-line orbital elements,

1 39445U 13066AF  18109.65043024  .00000250  00000-0  37529-4 0  9991
2 39445  97.5951 142.7763 0057742 344.8919  15.0568 14.81543298236546
Epoch (UTC): 19 April 2018 15:36:37
Eccentricity: 0.0057742
inclination: 97.5951°
perigee height: 584 km
apogee height: 665 km
right ascension of ascending node: 142.7763°
argument of perigee: 344.8919°
revolutions per day: 14.81543298
mean anomaly at epoch: 15.0568°
orbit number at epoch: 23654

The dashed part of the orbit path shows where the satellite is in the earth's shadow,  

DLR